EW7157 Weather Reports


Display with metric or nautical units.
time (UTC)temp
F
wind
direction
speed
MPH
gust
MPH
rain 1hr
in
rain 24hr
in
rain mn
in
humidity
%
barometer
mb
20260903163326 83 163 0.0 0.0 0.00 0.63 0.63 73 1036.9
20260903162327 82 112 0.0 0.0 0.00 0.63 0.63 77 1037.3
20260903161425 81 135 0.0 0.0 0.00 0.63 0.63 77 1037.4
20260903160427 81 180 0.0 0.0 0.00 0.63 0.63 79 1037.7
20260903154427 81 157 0.0 0.0 0.00 0.64 0.63 78 1038.2
20260903153428 81 180 0.0 0.0 0.00 0.64 0.63 77 1038.1
20260903152527 81 180 0.0 0.0 0.00 0.64 0.63 81 1038.2
20260903152427 80 180 0.0 0.0 0.00 0.64 0.63 82 1038.1
20260903151427 79 180 0.0 0.0 0.00 0.64 0.63 86 1037.9
20260903151226 79 180 0.0 0.0 0.00 0.64 0.63 87 1037.9
20260903150227 79 225 0.0 0.0 0.00 0.64 0.63 90 1038.2
20260903145225 79 225 0.0 0.0 0.00 0.65 0.63 93 1038.0
20260903145126 79 225 0.0 0.0 0.00 0.65 0.63 92 1038.0
20260903144127 78 225 0.0 0.0 0.00 0.65 0.63 94 1038.2
20260903143125 77 90 0.0 0.0 0.00 0.65 0.63 94 1038.0
20260903142127 77 90 0.0 0.0 0.00 0.65 0.63 95 1038.1
20260903141125 76 75 0.0 0.0 0.00 0.65 0.63 96 1037.8
20260903141026 76 90 0.0 0.0 0.00 0.65 0.63 96 1037.8
20260903140025 76 45 0.0 0.0 0.00 0.65 0.63 96 1038.0
20260903135027 75 45 0.0 0.0 0.00 0.65 0.63 97 1037.6
20260903134928 75 45 0.0 0.0 0.00 0.65 0.63 97 1037.6
20260903133025 73 45 0.0 0.0 0.00 0.65 0.63 96 1037.4
20260903132925 73 45 0.0 0.0 0.00 0.65 0.63 97 1037.5
20260903131925 72 360 0.0 0.0 0.00 0.65 0.63 97 1037.5
20260903130926 71 45 0.0 0.0 0.00 0.65 0.63 97 1037.6
20260903125926 71 45 0.0 0.0 0.00 0.65 0.63 97 1037.9
20260903124926 71 45 0.0 0.0 0.00 0.65 0.63 96 1037.7
20260903121026 69 45 0.0 0.0 0.00 0.65 0.63 97 1037.3
20260903120027 69 225 0.0 0.0 0.00 0.65 0.63 97 1037.5
20260903115125 69 315 0.0 1.0 0.00 0.65 0.63 96 1036.6
20260903115029 69 315 0.0 0.0 0.00 0.65 0.63 97 1036.8
20260903114125 69 315 0.0 0.0 0.00 0.65 0.63 97 1037.8
20260903113126 69 315 0.0 0.0 0.00 0.65 0.63 97 1038.0
20260903112126 69 315 0.0 0.0 0.00 0.65 0.63 97 1038.1
20260903111126 69 315 0.0 0.0 0.00 0.65 0.63 97 1038.4
20260903105225 69 315 0.0 0.0 0.01 0.65 0.63 97 1039.0
20260903104226 69 315 0.0 0.0 0.02 0.65 0.63 96 1038.9
20260903103228 69 315 0.0 0.0 0.03 0.65 0.63 97 1038.5
20260903102227 69 337 0.0 0.0 0.06 0.65 0.63 97 1038.4
20260903101326 69 337 0.0 0.0 0.08 0.65 0.63 96 1038.5
20260903100326 69 337 0.0 0.0 0.11 0.65 0.63 97 1038.7
20260903095326 69 360 0.0 0.0 0.13 0.64 0.62 97 1038.0
20260903094326 69 45 0.0 0.0 0.13 0.63 0.61 97 1038.3
20260903093326 69 135 0.0 0.0 0.15 0.62 0.60 97 1038.7
20260903092328 69 135 0.0 0.0 0.17 0.59 0.57 95 1039.1
20260903091327 69 135 0.0 0.0 0.15 0.57 0.55 96 1038.8
20260903090426 69 135 0.0 0.0 0.12 0.54 0.52 96 1038.5
20260903085425 69 135 0.0 0.0 0.10 0.51 0.49 96 1039.2
20260903083426 69 135 0.0 0.0 0.06 0.47 0.45 96 1040.0
20260903083328 69 135 0.0 0.0 0.06 0.47 0.44 96 1040.0
20260903082427 69 135 0.0 0.0 0.01 0.42 0.40 95 1040.5
20260903081427 69 135 0.0 0.0 0.01 0.42 0.40 96 1039.8
20260903081326 69 135 0.0 0.0 0.01 0.42 0.40 96 1039.6
20260903081225 69 135 0.0 0.0 0.01 0.42 0.40 96 1039.5
20260903080225 69 135 0.0 0.0 0.00 0.41 0.39 96 1040.0
20260903075224 68 135 0.0 0.0 0.00 0.41 0.39 95 1039.9
20260903075126 68 135 0.0 0.0 0.00 0.41 0.39 95 1039.9
20260903074126 68 135 0.0 0.0 0.00 0.41 0.39 94 1039.6
20260903073225 68 135 0.0 0.0 0.01 0.41 0.39 94 1039.4
20260903073125 68 135 0.0 0.0 0.01 0.41 0.39 94 1039.4
20260903072127 68 135 0.0 0.0 0.01 0.41 0.39 95 1039.3
20260903071225 68 135 0.0 0.0 0.04 0.41 0.39 95 1039.3
20260903065227 69 135 0.0 0.0 0.35 0.41 0.39 94 1039.1
20260903065125 69 135 0.0 0.0 0.36 0.41 0.39 95 1039.1
20260903063227 69 135 0.0 0.0 0.37 0.40 0.38 94 1039.7
20260903062226 69 135 0.0 0.0 0.38 0.40 0.38 93 1039.8
20260903061227 69 135 0.0 0.0 0.35 0.37 0.35 93 1039.2
20260903061125 69 135 0.0 0.0 0.35 0.37 0.35 94 1039.2
20260903060128 69 135 0.0 0.0 0.28 0.31 0.27 93 1040.2
20260903055126 69 135 0.0 0.0 0.03 0.05 0.03 93 1041.8
20260903055028 69 135 0.0 0.0 0.03 0.05 0.02 93 1041.7
20260903053127 70 360 0.0 0.0 0.01 0.03 0.01 92 1040.6
20260903052127 70 360 0.0 0.0 0.00 0.02 0.00 91 1040.6
20260903044126 70 360 0.0 0.0 0.00 0.02 0.00 92 1040.2
20260903043224 70 360 0.0 0.0 0.00 0.02 0.00 92 1040.3
20260903042227 70 360 0.0 0.0 0.00 0.02 0.00 92 1040.4
20260903041228 70 360 0.0 0.0 0.00 0.02 0.00 91 1040.5
20260903040226 70 360 0.0 0.0 0.00 0.02 0.00 92 1040.7
20260903035324 70 360 0.0 0.0 0.00 0.02 0.02 92 1040.8
20260903034325 70 360 0.0 0.0 0.00 0.02 0.02 93 1040.9
20260903033423 70 360 0.0 0.0 0.00 0.02 0.02 93 1041.2
20260903032423 70 360 0.0 0.0 0.00 0.02 0.02 93 1040.8
20260903031426 70 5 0.0 0.0 0.00 0.02 0.02 92 1040.4
20260903030524 70 45 0.0 0.0 0.00 0.02 0.02 93 1040.6
20260903022525 70 315 0.0 0.0 0.00 0.02 0.02 92 1040.9
20260903021526 70 315 0.0 0.0 0.00 0.02 0.02 92 1040.9
20260903015623 70 315 0.0 0.0 0.00 0.02 0.02 91 1040.3
20260903014626 70 315 0.0 0.0 0.00 0.02 0.02 91 1040.3
20260903013723 70 315 0.0 0.0 0.00 0.02 0.02 91 1040.4
20260903012725 70 315 0.0 0.0 0.00 0.02 0.02 90 1040.5
20260903011726 70 298 0.0 0.0 0.00 0.02 0.02 90 1040.7
20260903005824 70 292 0.0 0.0 0.00 0.03 0.02 91 1040.8
20260903004824 70 292 0.0 0.0 0.00 0.03 0.02 91 1040.8
20260903003825 70 292 0.0 0.0 0.00 0.03 0.02 90 1040.8
20260903002825 70 292 0.0 0.0 0.00 0.04 0.02 90 1040.5
20260903001824 70 292 0.0 0.0 0.00 0.04 0.02 91 1040.5
20260903000825 71 270 0.0 0.0 0.00 0.04 0.02 91 1040.3
20260902234923 71 270 0.0 0.0 0.00 0.04 0.02 91 1040.2
20260902233823 71 270 0.0 0.0 0.00 0.04 0.02 90 1040.3
20260902232922 71 270 0.0 0.0 0.00 0.04 0.02 90 1040.3
20260902231924 71 270 0.0 0.0 0.00 0.04 0.02 90 1040.2
20260902231023 71 270 0.0 0.0 0.00 0.04 0.02 90 1040.2
20260902230023 71 270 0.0 0.0 0.00 0.04 0.02 90 1040.4
20260902225123 71 270 0.0 0.0 0.00 0.04 0.02 90 1040.5
20260902224125 71 270 0.0 0.0 0.00 0.04 0.02 90 1040.6
20260902223125 71 270 0.0 0.0 0.00 0.04 0.02 91 1040.7
20260902221127 71 315 0.0 0.0 0.00 0.04 0.02 90 1041.1
20260902221025 71 315 0.0 0.0 0.00 0.04 0.02 91 1041.1
20260902214123 71 315 0.0 0.0 0.00 0.04 0.02 91 1040.9
20260902213125 71 315 0.0 0.0 0.00 0.04 0.02 90 1040.7
20260902212140 71 315 0.0 0.0 0.00 0.04 0.02 91 1040.4
20260902204224 72 360 0.0 0.0 0.00 0.04 0.02 90 1040.7
20260902204123 72 360 0.0 0.0 0.00 0.04 0.02 91 1040.7
20260902203125 72 337 0.0 0.0 0.00 0.04 0.02 92 1040.7
20260902202224 71 337 0.0 0.0 0.00 0.04 0.02 91 1040.6
20260902201227 71 337 0.0 0.0 0.00 0.04 0.02 93 1040.5
20260902200225 71 337 0.0 1.0 0.00 0.04 0.02 93 1040.6
20260902195226 71 360 0.0 0.0 0.00 0.04 0.02 93 1040.6
20260902193423 71 360 0.0 0.0 0.00 0.04 0.02 93 1040.8
20260902192325 71 360 0.0 0.0 0.00 0.04 0.02 92 1041.1
20260902191424 71 360 0.0 0.0 0.00 0.04 0.02 92 1041.1
20260902190523 71 360 0.0 0.0 0.00 0.04 0.02 92 1041.4
20260902185527 71 360 0.0 0.0 0.00 0.04 0.02 91 1041.4
20260902185425 71 360 0.0 0.0 0.00 0.04 0.02 90 1041.6
20260902184425 71 360 0.0 0.0 0.00 0.04 0.02 91 1041.6
20260902183524 71 360 0.0 0.0 0.00 0.04 0.02 91 1041.6
20260902182541 71 360 0.0 0.0 0.00 0.04 0.02 90 1041.8
20260902181523 71 360 0.0 0.0 0.00 0.04 0.02 90 1042.0
20260902180524 71 360 0.0 0.0 0.00 0.04 0.02 89 1041.8
20260902175523 71 360 0.0 0.0 0.00 0.04 0.02 89 1041.6
20260902173525 72 360 0.0 0.0 0.00 0.04 0.02 88 1041.7
20260902172524 72 360 0.0 0.0 0.00 0.04 0.02 88 1042.2
20260902172423 72 360 0.0 0.0 0.00 0.04 0.02 88 1042.2
20260902170425 72 360 0.0 0.0 0.00 0.04 0.02 86 1042.6